SGDC

Last updated on Wed Jul 09 2025 00:02:46 GMT+0000 (Coordinated Universal Time)

1 42692U 17023B 25188.41458592 -.00000232 00000+0 00000+0 0 9994 2 42692 0.0133 13.8382 0002387 108.5893 237.5943 1.00272094 29954
UTC large
Height (km)
Speed (km/s)
/
Latitude / Longitude
Inclination (degrees)
Orbital Period (minutes)
Azimuth
Elevation
Range (km)
Doppler Factor

Next 0 passes for location: London (51.5072 / 0.1276)

Sorry there are no passes over London.